Location: Kumla
(59.1265°N, 15.1401°E)
Time: 16:08:40
(UTC+01:00)

A-11 Canister half - Pass Details

Date: 06 December 2023
Orbit: 1512 x 1687 km, 47.2° (Epoch: 25 February)

Event Time Altitude Azimuth Distance (km) Brightness Sun altitude
Rises 02:34:10 0° 250° (WSW) 4,780 - -43.3°
Reaches altitude 10° 02:37:25 10° 243° (WSW) 3,820 - -42.9°
Maximum altitude 02:46:19 42° 178° (S) 2,209 - -42.0°
Exits shadow 02:49:29 34° 140° (SE) 2,494 10.0 -41.6°
Drops below altitude 10° 02:55:29 10° 112° (ESE) 3,933 11.5 -40.9°
Sets 02:58:52 0° 106° (ESE) 4,933 12.2 -40.5°
